2026/08/04
| Sensor | Date | Temp./Hum. |
|---|---|---|
| h4-hermonville | 04-08-2026 - 23:58 | 25.7°C / 48.5% |
| h2-hermonville | 04-08-2026 - 23:54 | 25.6°C / 49% |
| h1-hermonville | 04-08-2026 - 23:54 | 25.6°C / 49% |
| h3-hermonville | 04-08-2026 - 23:50 | 25.7°C / 48.5% |
| h4-hermonville | 04-08-2026 - 23:48 | 25.7°C / 48% |
| h2-hermonville | 04-08-2026 - 23:44 | 25.7°C / 48.5% |
| h1-hermonville | 04-08-2026 - 23:44 | 25.7°C / 48.5% |
| h3-hermonville | 04-08-2026 - 23:40 | 25.7°C / 48% |
| h4-hermonville | 04-08-2026 - 23:38 | 25.8°C / 47.5% |
| h2-hermonville | 04-08-2026 - 23:34 | 25.8°C / 48% |
| h1-hermonville | 04-08-2026 - 23:34 | 25.8°C / 48% |
| h3-hermonville | 04-08-2026 - 23:30 | 25.7°C / 47.5% |
| h4-hermonville | 04-08-2026 - 23:28 | 26°C / 47% |
| h2-hermonville | 04-08-2026 - 23:24 | 26°C / 47.5% |
| h1-hermonville | 04-08-2026 - 23:24 | 25.8°C / 47.5% |
| h3-hermonville | 04-08-2026 - 23:20 | 25.9°C / 47% |
| h4-hermonville | 04-08-2026 - 23:18 | 25.9°C / 47% |
| h1-hermonville | 04-08-2026 - 23:14 | 26°C / 47% |
| h3-hermonville | 04-08-2026 - 23:10 | 26.1°C / 46% |
| h4-hermonville | 04-08-2026 - 23:08 | 26.1°C / 46.5% |
| h2-hermonville | 04-08-2026 - 23:04 | 26.2°C / 46.5% |
| h1-hermonville | 04-08-2026 - 23:04 | 26.2°C / 46.5% |
| h3-hermonville | 04-08-2026 - 23:00 | 26.3°C / 46% |
| h4-hermonville | 04-08-2026 - 22:58 | 26.1°C / 46.5% |
| h2-hermonville | 04-08-2026 - 22:54 | 26.3°C / 46% |
| h1-hermonville | 04-08-2026 - 22:54 | 26.3°C / 46.5% |
| h3-hermonville | 04-08-2026 - 22:50 | 26.4°C / 45.5% |
| h4-hermonville | 04-08-2026 - 22:48 | 26.2°C / 46.5% |
| h2-hermonville | 04-08-2026 - 22:44 | 26.5°C / 46.5% |
| h1-hermonville | 04-08-2026 - 22:44 | 26.3°C / 46.5% |
| h3-hermonville | 04-08-2026 - 22:40 | 26.5°C / 45.5% |
| h4-hermonville | 04-08-2026 - 22:38 | 26.2°C / 46.5% |
| h1-hermonville | 04-08-2026 - 22:34 | 26.4°C / 46.5% |
| h3-hermonville | 04-08-2026 - 22:30 | 26.5°C / 45.5% |
| h4-hermonville | 04-08-2026 - 22:28 | 26.2°C / 46.5% |
| h2-hermonville | 04-08-2026 - 22:24 | 26.6°C / 46.5% |
| h1-hermonville | 04-08-2026 - 22:24 | 26.5°C / 46.5% |
| h3-hermonville | 04-08-2026 - 22:20 | 26.6°C / 45% |
| h4-hermonville | 04-08-2026 - 22:18 | 26.3°C / 46.5% |
| h2-hermonville | 04-08-2026 - 22:14 | 26.7°C / 46.5% |
| h1-hermonville | 04-08-2026 - 22:14 | 26.5°C / 46.5% |
| h3-hermonville | 04-08-2026 - 22:10 | 26.8°C / 45.5% |
| h4-hermonville | 04-08-2026 - 22:08 | 26.4°C / 46.5% |
| h2-hermonville | 04-08-2026 - 22:04 | 26.7°C / 47% |
| h1-hermonville | 04-08-2026 - 22:04 | 26.6°C / 47.5% |
| h3-hermonville | 04-08-2026 - 22:00 | 26.7°C / 46% |
| h4-hermonville | 04-08-2026 - 21:58 | 26.4°C / 48.5% |
| h2-hermonville | 04-08-2026 - 21:54 | 26.6°C / 49.5% |
| h1-hermonville | 04-08-2026 - 21:54 | 26.5°C / 49.5% |
| h3-hermonville | 04-08-2026 - 21:50 | 26.7°C / 48.5% |
| h4-hermonville | 04-08-2026 - 21:48 | 26.6°C / 50% |
| h2-hermonville | 04-08-2026 - 21:44 | 27.3°C / 49.5% |
| h1-hermonville | 04-08-2026 - 21:44 | 26.8°C / 50.5% |
| h3-hermonville | 04-08-2026 - 21:40 | 27.1°C / 47.5% |
| h4-hermonville | 04-08-2026 - 21:38 | 26.8°C / 50% |
| h2-hermonville | 04-08-2026 - 21:34 | 27.5°C / 50.5% |
| h1-hermonville | 04-08-2026 - 21:34 | 27.1°C / 51.5% |
| h3-hermonville | 04-08-2026 - 21:30 | 27.3°C / 48.5% |
| h4-hermonville | 04-08-2026 - 21:28 | 27°C / 51% |
| h2-hermonville | 04-08-2026 - 21:24 | 27.9°C / 50% |
| h1-hermonville | 04-08-2026 - 21:24 | 27.3°C / 51.5% |
| h3-hermonville | 04-08-2026 - 21:20 | 27.7°C / 48.5% |
| h4-hermonville | 04-08-2026 - 21:18 | 27.2°C / 50.5% |
| h2-hermonville | 04-08-2026 - 21:14 | 28.3°C / 48.5% |
| h1-hermonville | 04-08-2026 - 21:14 | 27.6°C / 50% |
| h3-hermonville | 04-08-2026 - 21:10 | 27.9°C / 49% |
| h4-hermonville | 04-08-2026 - 21:08 | 27.3°C / 50.5% |
| h2-hermonville | 04-08-2026 - 21:04 | 28.7°C / 47.5% |
| h1-hermonville | 04-08-2026 - 21:04 | 27.9°C / 49.5% |
| h3-hermonville | 04-08-2026 - 21:00 | 28.3°C / 47.5% |
| h4-hermonville | 04-08-2026 - 20:58 | 27.5°C / 50% |
| h2-hermonville | 04-08-2026 - 20:54 | 28.9°C / 47% |
| h1-hermonville | 04-08-2026 - 20:54 | 28.2°C / 49% |
| h3-hermonville | 04-08-2026 - 20:50 | 28.5°C / 47% |
| h4-hermonville | 04-08-2026 - 20:48 | 27.6°C / 50.5% |
| h2-hermonville | 04-08-2026 - 20:44 | 29.1°C / 47.5% |
| h1-hermonville | 04-08-2026 - 20:44 | 28.3°C / 49.5% |
| h3-hermonville | 04-08-2026 - 20:40 | 28.6°C / 48.5% |
| h4-hermonville | 04-08-2026 - 20:38 | 27.7°C / 51.5% |
| h2-hermonville | 04-08-2026 - 20:34 | 29.3°C / 50% |
| h1-hermonville | 04-08-2026 - 20:34 | 28.4°C / 52.5% |
| h3-hermonville | 04-08-2026 - 20:30 | 28.7°C / 52.5% |
| h4-hermonville | 04-08-2026 - 20:28 | 27.8°C / 56% |
| h1-hermonville | 04-08-2026 - 20:24 | 28.4°C / 56.5% |
| h3-hermonville | 04-08-2026 - 20:20 | 28.5°C / 55.5% |
| h4-hermonville | 04-08-2026 - 20:18 | 27.8°C / 58% |
| h2-hermonville | 04-08-2026 - 20:14 | 30°C / 53% |
| h1-hermonville | 04-08-2026 - 20:14 | 28.4°C / 57.5% |
| h3-hermonville | 04-08-2026 - 20:10 | 28.8°C / 55.5% |
| h4-hermonville | 04-08-2026 - 20:08 | 28°C / 58% |
| h2-hermonville | 04-08-2026 - 20:04 | 31.5°C / 49% |
| h1-hermonville | 04-08-2026 - 20:04 | 28.4°C / 57% |
| h3-hermonville | 04-08-2026 - 20:00 | 28.7°C / 55.5% |
| h4-hermonville | 04-08-2026 - 19:58 | 28.1°C / 57% |
| h2-hermonville | 04-08-2026 - 19:54 | 32.8°C / 46.5% |
| h1-hermonville | 04-08-2026 - 19:54 | 28.3°C / 57.5% |
| h3-hermonville | 04-08-2026 - 19:50 | 28.8°C / 55.5% |
| h4-hermonville | 04-08-2026 - 19:48 | 27.9°C / 57% |
| h2-hermonville | 04-08-2026 - 19:44 | 32.5°C / 46.5% |
| h1-hermonville | 04-08-2026 - 19:44 | 28.3°C / 57% |
| h3-hermonville | 04-08-2026 - 19:40 | 28.8°C / 55% |
| h4-hermonville | 04-08-2026 - 19:38 | 28°C / 57% |
| h2-hermonville | 04-08-2026 - 19:34 | 32°C / 47.5% |
| h1-hermonville | 04-08-2026 - 19:34 | 28.3°C / 57% |
| h3-hermonville | 04-08-2026 - 19:30 | 28.6°C / 55% |
| h4-hermonville | 04-08-2026 - 19:28 | 28.1°C / 56.5% |
| h2-hermonville | 04-08-2026 - 19:24 | 30.9°C / 49.5% |
| h1-hermonville | 04-08-2026 - 19:24 | 28.2°C / 57% |
| h3-hermonville | 04-08-2026 - 19:20 | 28.8°C / 54.5% |
| h4-hermonville | 04-08-2026 - 19:18 | 28.2°C / 56% |
| h2-hermonville | 04-08-2026 - 19:14 | 32.8°C / 45% |
| h1-hermonville | 04-08-2026 - 19:14 | 28.3°C / 56% |
| h3-hermonville | 04-08-2026 - 19:10 | 28.8°C / 54.5% |
| h4-hermonville | 04-08-2026 - 19:08 | 28.2°C / 56% |
| h2-hermonville | 04-08-2026 - 19:04 | 32.4°C / 46.5% |
| h1-hermonville | 04-08-2026 - 19:04 | 28.4°C / 56% |
| h3-hermonville | 04-08-2026 - 19:00 | 28.9°C / 54% |
| h4-hermonville | 04-08-2026 - 18:58 | 28.2°C / 55.5% |
| h2-hermonville | 04-08-2026 - 18:54 | 32.3°C / 46% |
| h1-hermonville | 04-08-2026 - 18:54 | 28.8°C / 55% |
| h3-hermonville | 04-08-2026 - 18:50 | 29.1°C / 53.5% |
| h4-hermonville | 04-08-2026 - 18:48 | 28.2°C / 55% |
| h1-hermonville | 04-08-2026 - 18:44 | 28.6°C / 55.5% |
| h3-hermonville | 04-08-2026 - 18:40 | 28.9°C / 53.5% |
| h4-hermonville | 04-08-2026 - 18:38 | 28°C / 55.5% |
| h2-hermonville | 04-08-2026 - 18:34 | 32.5°C / 45.5% |
| h1-hermonville | 04-08-2026 - 18:34 | 28.7°C / 55% |
| h3-hermonville | 04-08-2026 - 18:30 | 28.8°C / 53.5% |
| h4-hermonville | 04-08-2026 - 18:28 | 28°C / 55.5% |
| h2-hermonville | 04-08-2026 - 18:24 | 32.4°C / 45.5% |
| h1-hermonville | 04-08-2026 - 18:24 | 28.6°C / 55% |
| h3-hermonville | 04-08-2026 - 18:20 | 28.9°C / 52.5% |
| h4-hermonville | 04-08-2026 - 18:18 | 27.9°C / 55.5% |
| h2-hermonville | 04-08-2026 - 18:14 | 32.7°C / 44.5% |
| h1-hermonville | 04-08-2026 - 18:14 | 28.5°C / 54.5% |
| h3-hermonville | 04-08-2026 - 18:10 | 28.8°C / 53.5% |
| h4-hermonville | 04-08-2026 - 18:08 | 27.8°C / 55.5% |
| h2-hermonville | 04-08-2026 - 18:04 | 32.1°C / 72% |
| h1-hermonville | 04-08-2026 - 18:04 | 28.3°C / 55% |
| h3-hermonville | 04-08-2026 - 18:00 | 28.7°C / 53% |
| h4-hermonville | 04-08-2026 - 17:58 | 27.9°C / 55% |
| h2-hermonville | 04-08-2026 - 17:54 | 33.8°C / 43% |
| h1-hermonville | 04-08-2026 - 17:54 | 28.1°C / 56% |
| h3-hermonville | 04-08-2026 - 17:50 | 28.8°C / 53% |
| h4-hermonville | 04-08-2026 - 17:48 | 27.7°C / 55.5% |
| h2-hermonville | 04-08-2026 - 17:44 | 32.9°C / 44% |
| h1-hermonville | 04-08-2026 - 17:44 | 28.1°C / 56.5% |
| h3-hermonville | 04-08-2026 - 17:40 | 28.4°C / 53.5% |
| h4-hermonville | 04-08-2026 - 17:38 | 27.5°C / 56% |
| h2-hermonville | 04-08-2026 - 17:34 | 32.4°C / 45% |
| h1-hermonville | 04-08-2026 - 17:34 | 27.8°C / 56.5% |
| h3-hermonville | 04-08-2026 - 17:30 | 28.4°C / 54.5% |
| h4-hermonville | 04-08-2026 - 17:28 | 27.2°C / 57% |
| h2-hermonville | 04-08-2026 - 17:24 | 32°C / 45.5% |
| h1-hermonville | 04-08-2026 - 17:24 | 27.6°C / 56.5% |
| h3-hermonville | 04-08-2026 - 17:20 | 27.9°C / 54.5% |
| h4-hermonville | 04-08-2026 - 17:18 | 27°C / 57% |
| h2-hermonville | 04-08-2026 - 17:14 | 31.3°C / 47% |
| h1-hermonville | 04-08-2026 - 17:14 | 27.3°C / 57% |
| h3-hermonville | 04-08-2026 - 17:10 | 27.8°C / 53.5% |
| h4-hermonville | 04-08-2026 - 17:08 | 26.7°C / 57% |
| h2-hermonville | 04-08-2026 - 17:04 | 31.9°C / 48% |
| h1-hermonville | 04-08-2026 - 17:04 | 26.6°C / 62% |
| h3-hermonville | 04-08-2026 - 17:00 | 27.4°C / 59.5% |
| h4-hermonville | 04-08-2026 - 16:58 | 26.6°C / 61% |
| h2-hermonville | 04-08-2026 - 16:54 | 31.1°C / 50.5% |
| h1-hermonville | 04-08-2026 - 16:54 | 26.5°C / 62% |
| h3-hermonville | 04-08-2026 - 16:50 | 27°C / 60.5% |
| h4-hermonville | 04-08-2026 - 16:48 | 26.3°C / 61.5% |
| h2-hermonville | 04-08-2026 - 16:44 | 29.6°C / 53.5% |
| h1-hermonville | 04-08-2026 - 16:44 | 26.7°C / 61% |
| h3-hermonville | 04-08-2026 - 16:40 | 26.7°C / 61.5% |
| h4-hermonville | 04-08-2026 - 16:38 | 26.2°C / 62% |
| h2-hermonville | 04-08-2026 - 16:34 | 28.4°C / 56% |
| h1-hermonville | 04-08-2026 - 16:34 | 26.5°C / 62% |
| h3-hermonville | 04-08-2026 - 16:30 | 26.3°C / 61.5% |
| h4-hermonville | 04-08-2026 - 16:28 | 25.9°C / 62.5% |
| h2-hermonville | 04-08-2026 - 16:24 | 28.3°C / 58% |
| h1-hermonville | 04-08-2026 - 16:24 | 26.3°C / 63.5% |
| h3-hermonville | 04-08-2026 - 16:20 | 26°C / 65% |
| h4-hermonville | 04-08-2026 - 16:18 | 25.8°C / 65% |
| h2-hermonville | 04-08-2026 - 16:14 | 26.7°C / 65.5% |
| h1-hermonville | 04-08-2026 - 16:14 | 26°C / 66% |
| h3-hermonville | 04-08-2026 - 16:10 | 25°C / 68% |
| h2-hermonville | 04-08-2026 - 16:04 | 25.6°C / 68% |
| h1-hermonville | 04-08-2026 - 16:04 | 25.8°C / 67% |
| h3-hermonville | 04-08-2026 - 16:00 | 25°C / 69% |
| h4-hermonville | 04-08-2026 - 15:58 | 25.1°C / 68.5% |
| h2-hermonville | 04-08-2026 - 15:54 | 25.3°C / 69.5% |
| h1-hermonville | 04-08-2026 - 15:54 | 25.2°C / 69.5% |
| h3-hermonville | 04-08-2026 - 15:50 | 24.7°C / 70% |
| h4-hermonville | 04-08-2026 - 15:48 | 25.2°C / 68% |
| h2-hermonville | 04-08-2026 - 15:44 | 25°C / 72% |
| h1-hermonville | 04-08-2026 - 15:44 | 25.2°C / 70% |
| h3-hermonville | 04-08-2026 - 15:40 | 24.7°C / 70.5% |
| h4-hermonville | 04-08-2026 - 15:38 | 25.1°C / 67% |
| h2-hermonville | 04-08-2026 - 15:34 | 25°C / 69% |
| h1-hermonville | 04-08-2026 - 15:34 | 25.2°C / 68.5% |
| h3-hermonville | 04-08-2026 - 15:30 | 24.8°C / 71.5% |
| h4-hermonville | 04-08-2026 - 15:28 | 25.2°C / 69.5% |
| h2-hermonville | 04-08-2026 - 15:24 | 25.2°C / 70.5% |
| h1-hermonville | 04-08-2026 - 15:24 | 25.5°C / 70% |
| h3-hermonville | 04-08-2026 - 15:20 | 24.7°C / 69.5% |
| h4-hermonville | 04-08-2026 - 15:18 | 25.2°C / 68.5% |
| h2-hermonville | 04-08-2026 - 15:14 | 25.1°C / 70.5% |
| h1-hermonville | 04-08-2026 - 15:14 | 25.3°C / 69% |
| h3-hermonville | 04-08-2026 - 15:10 | 24.7°C / 71% |
| h4-hermonville | 04-08-2026 - 15:08 | 25.2°C / 68.5% |
| h2-hermonville | 04-08-2026 - 15:04 | 25.2°C / 70% |
| h1-hermonville | 04-08-2026 - 15:04 | 25.3°C / 69.5% |
| h3-hermonville | 04-08-2026 - 15:00 | 24.7°C / 70% |
| h4-hermonville | 04-08-2026 - 14:58 | 25.3°C / 67% |
| h2-hermonville | 04-08-2026 - 14:54 | 25°C / 69.5% |
| h1-hermonville | 04-08-2026 - 14:54 | 25.1°C / 69.5% |
| h3-hermonville | 04-08-2026 - 14:50 | 25°C / 69% |
| h4-hermonville | 04-08-2026 - 14:48 | 25.4°C / 66% |
| h2-hermonville | 04-08-2026 - 14:44 | 25.4°C / 67% |
| h1-hermonville | 04-08-2026 - 14:44 | 25.2°C / 67% |
| h3-hermonville | 04-08-2026 - 14:40 | 25.1°C / 66.5% |
| h4-hermonville | 04-08-2026 - 14:38 | 25.6°C / 64% |
| h1-hermonville | 04-08-2026 - 14:34 | 25.3°C / 67% |
| h3-hermonville | 04-08-2026 - 14:30 | 25.2°C / 67% |
| h4-hermonville | 04-08-2026 - 14:28 | 25.6°C / 65% |
| h2-hermonville | 04-08-2026 - 14:24 | 25.3°C / 66.5% |
| h1-hermonville | 04-08-2026 - 14:24 | 25.1°C / 67.5% |
| h3-hermonville | 04-08-2026 - 14:20 | 25°C / 67.5% |
| h4-hermonville | 04-08-2026 - 14:18 | 25.3°C / 66% |
| h2-hermonville | 04-08-2026 - 14:14 | 25.1°C / 68.5% |
| h1-hermonville | 04-08-2026 - 14:14 | 24.9°C / 68.5% |
| h3-hermonville | 04-08-2026 - 14:10 | 24.7°C / 68.5% |
| h4-hermonville | 04-08-2026 - 14:08 | 25.1°C / 66% |
| h2-hermonville | 04-08-2026 - 14:04 | 24.9°C / 69% |
| h1-hermonville | 04-08-2026 - 14:04 | 24.8°C / 69% |
| h3-hermonville | 04-08-2026 - 14:00 | 24.5°C / 69.5% |
| h4-hermonville | 04-08-2026 - 13:58 | 25°C / 66.5% |
| h2-hermonville | 04-08-2026 - 13:54 | 24.9°C / 69% |
| h1-hermonville | 04-08-2026 - 13:54 | 24.7°C / 69% |
| h3-hermonville | 04-08-2026 - 13:50 | 24.5°C / 69% |
| h4-hermonville | 04-08-2026 - 13:48 | 25°C / 67% |
| h2-hermonville | 04-08-2026 - 13:44 | 24.8°C / 69% |
| h1-hermonville | 04-08-2026 - 13:44 | 24.6°C / 69% |
| h4-hermonville | 04-08-2026 - 13:38 | 25°C / 67.5% |
| h2-hermonville | 04-08-2026 - 13:34 | 24.6°C / 69.5% |
| h1-hermonville | 04-08-2026 - 13:34 | 24.4°C / 70% |
| h3-hermonville | 04-08-2026 - 13:30 | 24.2°C / 71% |
| h4-hermonville | 04-08-2026 - 13:28 | 24.7°C / 68.5% |
| h2-hermonville | 04-08-2026 - 13:24 | 24.3°C / 72% |
| h1-hermonville | 04-08-2026 - 13:24 | 24.3°C / 71% |
| h3-hermonville | 04-08-2026 - 13:20 | 24°C / 72.5% |
| h4-hermonville | 04-08-2026 - 13:18 | 24.6°C / 69.5% |
| h2-hermonville | 04-08-2026 - 13:14 | 24.1°C / 73% |
| h1-hermonville | 04-08-2026 - 13:14 | 24.2°C / 72% |
| h3-hermonville | 04-08-2026 - 13:10 | 24°C / 73.5% |
| h4-hermonville | 04-08-2026 - 13:08 | 24.7°C / 69.5% |
| h2-hermonville | 04-08-2026 - 13:04 | 24.2°C / 73.5% |
| h1-hermonville | 04-08-2026 - 13:04 | 24.2°C / 72.5% |
| h3-hermonville | 04-08-2026 - 13:00 | 23.9°C / 74% |
| h4-hermonville | 04-08-2026 - 12:58 | 24.6°C / 69% |
| h2-hermonville | 04-08-2026 - 12:54 | 24°C / 73% |
| h1-hermonville | 04-08-2026 - 12:54 | 24.1°C / 72% |
| h3-hermonville | 04-08-2026 - 12:50 | 23.8°C / 73% |
| h4-hermonville | 04-08-2026 - 12:48 | 24.6°C / 69% |
| h2-hermonville | 04-08-2026 - 12:44 | 23.9°C / 73.5% |
| h1-hermonville | 04-08-2026 - 12:44 | 24.1°C / 72.5% |
| h3-hermonville | 04-08-2026 - 12:40 | 23.7°C / 72.5% |
| h4-hermonville | 04-08-2026 - 12:38 | 24.5°C / 68.5% |
| h2-hermonville | 04-08-2026 - 12:34 | 23.9°C / 74.5% |
| h1-hermonville | 04-08-2026 - 12:34 | 24.1°C / 73% |
| h3-hermonville | 04-08-2026 - 12:30 | 23.6°C / 73.5% |
| h4-hermonville | 04-08-2026 - 12:28 | 24.6°C / 69% |
| h2-hermonville | 04-08-2026 - 12:24 | 23.6°C / 75.5% |
| h1-hermonville | 04-08-2026 - 12:24 | 24.2°C / 73.5% |
| h3-hermonville | 04-08-2026 - 12:20 | 23.5°C / 76% |
| h4-hermonville | 04-08-2026 - 12:18 | 24.6°C / 71% |
| h2-hermonville | 04-08-2026 - 12:14 | 23.6°C / 77% |
| h1-hermonville | 04-08-2026 - 12:14 | 24°C / 74.5% |
| h3-hermonville | 04-08-2026 - 12:10 | 23.5°C / 76% |
| h4-hermonville | 04-08-2026 - 12:08 | 24.4°C / 71% |
| h2-hermonville | 04-08-2026 - 12:04 | 23.3°C / 75.5% |
| h1-hermonville | 04-08-2026 - 12:04 | 24°C / 73% |
| h3-hermonville | 04-08-2026 - 12:00 | 23.3°C / 76% |
| h4-hermonville | 04-08-2026 - 11:58 | 24.2°C / 71% |
| h2-hermonville | 04-08-2026 - 11:54 | 23.4°C / 76% |
| h1-hermonville | 04-08-2026 - 11:54 | 23.9°C / 74% |
| h3-hermonville | 04-08-2026 - 11:50 | 23.3°C / 76% |
| h4-hermonville | 04-08-2026 - 11:48 | 24.3°C / 71% |
| h2-hermonville | 04-08-2026 - 11:44 | 23.5°C / 75.5% |
| h1-hermonville | 04-08-2026 - 11:44 | 24°C / 73% |
| h3-hermonville | 04-08-2026 - 11:40 | 23.5°C / 74% |
| h4-hermonville | 04-08-2026 - 11:38 | 24.2°C / 69.5% |
| h2-hermonville | 04-08-2026 - 11:34 | 23.5°C / 73.5% |
| h1-hermonville | 04-08-2026 - 11:34 | 24.1°C / 72% |
| h3-hermonville | 04-08-2026 - 11:30 | 23.4°C / 74% |
| h4-hermonville | 04-08-2026 - 11:28 | 24.2°C / 70% |
| h2-hermonville | 04-08-2026 - 11:24 | 23.4°C / 74.5% |
| h1-hermonville | 04-08-2026 - 11:24 | 24°C / 72% |
| h3-hermonville | 04-08-2026 - 11:20 | 23.2°C / 74.5% |
| h4-hermonville | 04-08-2026 - 11:18 | 23.9°C / 71% |
| h2-hermonville | 04-08-2026 - 11:14 | 23.4°C / 75.5% |
| h1-hermonville | 04-08-2026 - 11:14 | 23.8°C / 73.5% |
| h3-hermonville | 04-08-2026 - 11:10 | 23.1°C / 75.5% |
| h4-hermonville | 04-08-2026 - 11:08 | 23.8°C / 71.5% |
| h2-hermonville | 04-08-2026 - 11:04 | 23.1°C / 76% |
| h1-hermonville | 04-08-2026 - 11:04 | 23.5°C / 74% |
| h3-hermonville | 04-08-2026 - 11:00 | 22.9°C / 76% |
| h4-hermonville | 04-08-2026 - 10:58 | 23.7°C / 71.5% |
| h2-hermonville | 04-08-2026 - 10:54 | 23.2°C / 76% |
| h1-hermonville | 04-08-2026 - 10:54 | 23.4°C / 74% |
| h3-hermonville | 04-08-2026 - 10:50 | 22.7°C / 76.5% |
| h4-hermonville | 04-08-2026 - 10:48 | 23.8°C / 71.5% |
| h2-hermonville | 04-08-2026 - 10:44 | 23°C / 77% |
| h1-hermonville | 04-08-2026 - 10:44 | 23.4°C / 75% |
| h3-hermonville | 04-08-2026 - 10:40 | 22.7°C / 77.5% |
| h4-hermonville | 04-08-2026 - 10:38 | 23.7°C / 72% |
| h2-hermonville | 04-08-2026 - 10:34 | 22.8°C / 77.5% |
| h1-hermonville | 04-08-2026 - 10:34 | 23.3°C / 75.5% |
| h3-hermonville | 04-08-2026 - 10:30 | 22.6°C / 77.5% |
| h4-hermonville | 04-08-2026 - 10:28 | 23.8°C / 71.5% |
| h2-hermonville | 04-08-2026 - 10:24 | 22.9°C / 77.5% |
| h1-hermonville | 04-08-2026 - 10:24 | 23.4°C / 75% |
| h3-hermonville | 04-08-2026 - 10:20 | 22.7°C / 76.5% |
| h4-hermonville | 04-08-2026 - 10:18 | 23.8°C / 71% |
| h1-hermonville | 04-08-2026 - 10:14 | 23.3°C / 75% |
| h3-hermonville | 04-08-2026 - 10:10 | 22.7°C / 77% |
| h2-hermonville | 04-08-2026 - 10:04 | 22.8°C / 77% |
| h1-hermonville | 04-08-2026 - 10:04 | 23.1°C / 74.5% |
| h3-hermonville | 04-08-2026 - 10:00 | 22.6°C / 76% |
| h4-hermonville | 04-08-2026 - 09:58 | 23.5°C / 71.5% |
| h2-hermonville | 04-08-2026 - 09:54 | 22.8°C / 76% |
| h3-hermonville | 04-08-2026 - 09:50 | 23°C / 74% |
| h4-hermonville | 04-08-2026 - 09:48 | 23.8°C / 70% |
| h2-hermonville | 04-08-2026 - 09:44 | 22.9°C / 76.5% |
| h1-hermonville | 04-08-2026 - 09:44 | 22.9°C / 74% |
| h3-hermonville | 04-08-2026 - 09:40 | 22.9°C / 74.5% |
| h4-hermonville | 04-08-2026 - 09:38 | 23.5°C / 70.5% |
| h2-hermonville | 04-08-2026 - 09:34 | 22.7°C / 76.5% |
| h1-hermonville | 04-08-2026 - 09:34 | 22.9°C / 74% |
| h3-hermonville | 04-08-2026 - 09:30 | 22.7°C / 75% |
| h4-hermonville | 04-08-2026 - 09:28 | 23.4°C / 70.5% |
| h2-hermonville | 04-08-2026 - 09:24 | 22.8°C / 75% |
| h1-hermonville | 04-08-2026 - 09:24 | 22.9°C / 74% |
| h3-hermonville | 04-08-2026 - 09:20 | 22.7°C / 74.5% |
| h4-hermonville | 04-08-2026 - 09:18 | 23.3°C / 71% |
| h2-hermonville | 04-08-2026 - 09:14 | 22.7°C / 75% |
| h1-hermonville | 04-08-2026 - 09:14 | 22.8°C / 74% |
| h3-hermonville | 04-08-2026 - 09:10 | 22.4°C / 75% |
| h4-hermonville | 04-08-2026 - 09:08 | 23.2°C / 72% |
| h2-hermonville | 04-08-2026 - 09:04 | 22.5°C / 76% |
| h1-hermonville | 04-08-2026 - 09:04 | 22.6°C / 76% |
| h3-hermonville | 04-08-2026 - 09:00 | 22.7°C / 75% |
| h4-hermonville | 04-08-2026 - 08:58 | 23.2°C / 71.5% |
| h2-hermonville | 04-08-2026 - 08:54 | 22.7°C / 75% |
| h1-hermonville | 04-08-2026 - 08:54 | 22.2°C / 76.5% |
| h3-hermonville | 04-08-2026 - 08:50 | 22.6°C / 74.5% |
| h4-hermonville | 04-08-2026 - 08:48 | 23.1°C / 71% |
| h2-hermonville | 04-08-2026 - 08:44 | 22.5°C / 75.5% |
| h1-hermonville | 04-08-2026 - 08:44 | 22.6°C / 74.5% |
| h3-hermonville | 04-08-2026 - 08:40 | 22.2°C / 75.5% |
| h4-hermonville | 04-08-2026 - 08:38 | 22.9°C / 72% |
| h2-hermonville | 04-08-2026 - 08:34 | 22.5°C / 75.5% |
| h1-hermonville | 04-08-2026 - 08:34 | 22.5°C / 75% |
| h3-hermonville | 04-08-2026 - 08:30 | 22.2°C / 75.5% |
| h4-hermonville | 04-08-2026 - 08:28 | 22.8°C / 73.5% |
| h2-hermonville | 04-08-2026 - 08:24 | 22.6°C / 75% |
| h1-hermonville | 04-08-2026 - 08:24 | 22.3°C / 76% |
| h3-hermonville | 04-08-2026 - 08:20 | 22.5°C / 74.5% |
| h4-hermonville | 04-08-2026 - 08:18 | 22.7°C / 72.5% |
| h2-hermonville | 04-08-2026 - 08:14 | 22.4°C / 76% |
| h1-hermonville | 04-08-2026 - 08:14 | 22.3°C / 75.5% |
| h3-hermonville | 04-08-2026 - 08:10 | 22°C / 76.5% |
| h4-hermonville | 04-08-2026 - 08:08 | 22.3°C / 75% |
| h2-hermonville | 04-08-2026 - 08:04 | 22.8°C / 75.5% |
| h1-hermonville | 04-08-2026 - 08:04 | 21.9°C / 79% |
| h3-hermonville | 04-08-2026 - 08:00 | 22.8°C / 74% |
| h4-hermonville | 04-08-2026 - 07:58 | 22.4°C / 75% |
| h2-hermonville | 04-08-2026 - 07:54 | 22.5°C / 76% |
| h1-hermonville | 04-08-2026 - 07:54 | 22.2°C / 76.5% |
| h3-hermonville | 04-08-2026 - 07:50 | 22.6°C / 74.5% |
| h4-hermonville | 04-08-2026 - 07:48 | 22.3°C / 74% |
| h2-hermonville | 04-08-2026 - 07:44 | 22.8°C / 75% |
| h1-hermonville | 04-08-2026 - 07:44 | 22°C / 77% |
| h3-hermonville | 04-08-2026 - 07:40 | 22.8°C / 73% |
| h4-hermonville | 04-08-2026 - 07:38 | 22.4°C / 73.5% |
| h2-hermonville | 04-08-2026 - 07:34 | 22.5°C / 75% |
| h1-hermonville | 04-08-2026 - 07:34 | 22.4°C / 75.5% |
| h3-hermonville | 04-08-2026 - 07:30 | 22.6°C / 73.5% |
| h4-hermonville | 04-08-2026 - 07:28 | 22.9°C / 71% |
| h2-hermonville | 04-08-2026 - 07:24 | 22.1°C / 76% |
| h1-hermonville | 04-08-2026 - 07:24 | 22.5°C / 74% |
| h3-hermonville | 04-08-2026 - 07:20 | 22.4°C / 74% |
| h4-hermonville | 04-08-2026 - 07:18 | 22.9°C / 71% |
| h2-hermonville | 04-08-2026 - 07:14 | 22.3°C / 75.5% |
| h1-hermonville | 04-08-2026 - 07:14 | 22.5°C / 73.5% |
| h3-hermonville | 04-08-2026 - 07:10 | 22.5°C / 74% |
| h4-hermonville | 04-08-2026 - 07:08 | 22.9°C / 70.5% |
| h2-hermonville | 04-08-2026 - 07:04 | 22.2°C / 75% |
| h1-hermonville | 04-08-2026 - 07:04 | 22.6°C / 73.5% |
| h3-hermonville | 04-08-2026 - 07:00 | 22.3°C / 73.5% |
| h4-hermonville | 04-08-2026 - 06:58 | 23°C / 70.5% |
| h2-hermonville | 04-08-2026 - 06:54 | 22.4°C / 75% |
| h1-hermonville | 04-08-2026 - 06:54 | 22.4°C / 73.5% |
| h3-hermonville | 04-08-2026 - 06:50 | 22.3°C / 73.5% |
| h4-hermonville | 04-08-2026 - 06:48 | 22.9°C / 70.5% |
| h2-hermonville | 04-08-2026 - 06:44 | 22.2°C / 75.5% |
| h1-hermonville | 04-08-2026 - 06:44 | 22.4°C / 74% |
| h3-hermonville | 04-08-2026 - 06:40 | 22.1°C / 74.5% |
| h4-hermonville | 04-08-2026 - 06:38 | 22.8°C / 70.5% |
| h2-hermonville | 04-08-2026 - 06:34 | 22°C / 76% |
| h1-hermonville | 04-08-2026 - 06:34 | 22.2°C / 74.5% |
| h3-hermonville | 04-08-2026 - 06:30 | 22.1°C / 75% |
| h4-hermonville | 04-08-2026 - 06:28 | 22.9°C / 70.5% |
| h2-hermonville | 04-08-2026 - 06:24 | 22.2°C / 75.5% |
| h1-hermonville | 04-08-2026 - 06:24 | 22.2°C / 74.5% |
| h3-hermonville | 04-08-2026 - 06:20 | 22.1°C / 74.5% |
| h4-hermonville | 04-08-2026 - 06:18 | 22.8°C / 70.5% |
| h2-hermonville | 04-08-2026 - 06:14 | 22.2°C / 75.5% |
| h1-hermonville | 04-08-2026 - 06:14 | 22.3°C / 74.5% |
| h3-hermonville | 04-08-2026 - 06:10 | 22.3°C / 74% |
| h2-hermonville | 04-08-2026 - 06:04 | 22.2°C / 75.5% |
| h1-hermonville | 04-08-2026 - 06:04 | 22.3°C / 74% |
| h3-hermonville | 04-08-2026 - 06:00 | 22.3°C / 74% |
| h1-hermonville | 04-08-2026 - 05:54 | 22.5°C / 73% |
| h3-hermonville | 04-08-2026 - 05:50 | 22.5°C / 73% |
| h4-hermonville | 04-08-2026 - 05:48 | 23.1°C / 69% |
| h2-hermonville | 04-08-2026 - 05:44 | 22.6°C / 73.5% |
| h1-hermonville | 04-08-2026 - 05:44 | 22.6°C / 72.5% |
| h3-hermonville | 04-08-2026 - 05:40 | 22.4°C / 72.5% |
| h4-hermonville | 04-08-2026 - 05:38 | 23.2°C / 69% |
| h2-hermonville | 04-08-2026 - 05:34 | 22.4°C / 73.5% |
| h1-hermonville | 04-08-2026 - 05:34 | 22.4°C / 72.5% |
| h3-hermonville | 04-08-2026 - 05:30 | 22.4°C / 72.5% |
| h4-hermonville | 04-08-2026 - 05:28 | 23°C / 69% |
| h2-hermonville | 04-08-2026 - 05:24 | 22.3°C / 74% |
| h1-hermonville | 04-08-2026 - 05:24 | 22.5°C / 72.5% |
| h3-hermonville | 04-08-2026 - 05:20 | 22.2°C / 73% |
| h4-hermonville | 04-08-2026 - 05:18 | 23°C / 69% |
| h2-hermonville | 04-08-2026 - 05:14 | 22°C / 74.5% |
| h1-hermonville | 04-08-2026 - 05:14 | 22.2°C / 73.5% |
| h3-hermonville | 04-08-2026 - 05:10 | 21.9°C / 75% |
| h4-hermonville | 04-08-2026 - 05:08 | 22.9°C / 70% |
| h2-hermonville | 04-08-2026 - 05:04 | 21.7°C / 77% |
| h1-hermonville | 04-08-2026 - 05:04 | 22.1°C / 74.5% |
| h3-hermonville | 04-08-2026 - 05:00 | 21.6°C / 76.5% |
| h4-hermonville | 04-08-2026 - 04:58 | 22.8°C / 70.5% |
| h1-hermonville | 04-08-2026 - 04:54 | 22.1°C / 74.5% |
| h3-hermonville | 04-08-2026 - 04:50 | 21.7°C / 75.5% |
| h4-hermonville | 04-08-2026 - 04:48 | 22.9°C / 70% |
| h2-hermonville | 04-08-2026 - 04:44 | 21.7°C / 76.5% |
| h1-hermonville | 04-08-2026 - 04:44 | 22.2°C / 74.5% |
| h3-hermonville | 04-08-2026 - 04:40 | 21.6°C / 76.5% |
| h4-hermonville | 04-08-2026 - 04:38 | 22.8°C / 70.5% |
| h2-hermonville | 04-08-2026 - 04:34 | 21.7°C / 77.5% |
| h1-hermonville | 04-08-2026 - 04:34 | 22.1°C / 75% |
| h3-hermonville | 04-08-2026 - 04:30 | 21.4°C / 77.5% |
| h4-hermonville | 04-08-2026 - 04:28 | 23°C / 70.5% |
| h2-hermonville | 04-08-2026 - 04:24 | 21.6°C / 78% |
| h1-hermonville | 04-08-2026 - 04:24 | 22.1°C / 75.5% |
| h3-hermonville | 04-08-2026 - 04:20 | 21.4°C / 78.5% |
| h4-hermonville | 04-08-2026 - 04:18 | 23°C / 71% |
| h2-hermonville | 04-08-2026 - 04:14 | 21.7°C / 78% |
| h1-hermonville | 04-08-2026 - 04:14 | 22.2°C / 75.5% |
| h3-hermonville | 04-08-2026 - 04:10 | 21.5°C / 78.5% |
| h4-hermonville | 04-08-2026 - 04:08 | 22.8°C / 71.5% |
| h2-hermonville | 04-08-2026 - 04:04 | 22°C / 77% |
| h1-hermonville | 04-08-2026 - 04:04 | 22.1°C / 75.5% |
| h3-hermonville | 04-08-2026 - 04:00 | 21.7°C / 77% |
| h4-hermonville | 04-08-2026 - 03:58 | 22.9°C / 70.5% |
| h2-hermonville | 04-08-2026 - 03:54 | 21.8°C / 77.5% |
| h1-hermonville | 04-08-2026 - 03:54 | 22.1°C / 75.5% |
| h3-hermonville | 04-08-2026 - 03:50 | 21.7°C / 77% |
| h4-hermonville | 04-08-2026 - 03:48 | 23.3°C / 70% |
| h2-hermonville | 04-08-2026 - 03:44 | 21.7°C / 78% |
| h1-hermonville | 04-08-2026 - 03:44 | 22.2°C / 75.5% |
| h3-hermonville | 04-08-2026 - 03:40 | 21.7°C / 77.5% |
| h4-hermonville | 04-08-2026 - 03:38 | 23.2°C / 70% |
| h2-hermonville | 04-08-2026 - 03:34 | 21.8°C / 78% |
| h1-hermonville | 04-08-2026 - 03:34 | 22.1°C / 75.5% |
| h3-hermonville | 04-08-2026 - 03:30 | 21.4°C / 78% |
| h4-hermonville | 04-08-2026 - 03:28 | 23.2°C / 70% |
| h2-hermonville | 04-08-2026 - 03:24 | 21.4°C / 79.5% |
| h1-hermonville | 04-08-2026 - 03:24 | 22°C / 76.5% |
| h3-hermonville | 04-08-2026 - 03:20 | 21.2°C / 79.5% |
| h4-hermonville | 04-08-2026 - 03:18 | 23.1°C / 71% |
| h2-hermonville | 04-08-2026 - 03:14 | 21.1°C / 82% |
| h1-hermonville | 04-08-2026 - 03:14 | 22°C / 77.5% |
| h3-hermonville | 04-08-2026 - 03:10 | 21°C / 81.5% |
| h4-hermonville | 04-08-2026 - 03:08 | 23.2°C / 71.5% |
| h2-hermonville | 04-08-2026 - 03:04 | 21.1°C / 82% |
| h1-hermonville | 04-08-2026 - 03:04 | 21.9°C / 77.5% |
| h3-hermonville | 04-08-2026 - 03:00 | 21°C / 81% |
| h4-hermonville | 04-08-2026 - 02:58 | 23.3°C / 70.5% |
| h2-hermonville | 04-08-2026 - 02:54 | 21.3°C / 81.5% |
| h1-hermonville | 04-08-2026 - 02:54 | 22°C / 77% |
| h3-hermonville | 04-08-2026 - 02:50 | 21.2°C / 80% |
| h4-hermonville | 04-08-2026 - 02:48 | 23.2°C / 70.5% |
| h2-hermonville | 04-08-2026 - 02:44 | 21°C / 82% |
| h1-hermonville | 04-08-2026 - 02:44 | 21.9°C / 77% |
| h3-hermonville | 04-08-2026 - 02:40 | 21.1°C / 79.5% |
| h4-hermonville | 04-08-2026 - 02:38 | 23.2°C / 70% |
| h2-hermonville | 04-08-2026 - 02:34 | 20.9°C / 82% |
| h1-hermonville | 04-08-2026 - 02:34 | 21.9°C / 76.5% |
| h3-hermonville | 04-08-2026 - 02:30 | 21.4°C / 78% |
| h4-hermonville | 04-08-2026 - 02:28 | 23.3°C / 69% |
| h2-hermonville | 04-08-2026 - 02:24 | 20.6°C / 82% |
| h1-hermonville | 04-08-2026 - 02:24 | 21.8°C / 75.5% |
| h3-hermonville | 04-08-2026 - 02:20 | 21.5°C / 75.5% |
| h4-hermonville | 04-08-2026 - 02:18 | 23.2°C / 69% |
| h2-hermonville | 04-08-2026 - 02:14 | 20.5°C / 82.5% |
| h1-hermonville | 04-08-2026 - 02:14 | 21.7°C / 76.5% |
| h3-hermonville | 04-08-2026 - 02:10 | 21.2°C / 76.5% |
| h4-hermonville | 04-08-2026 - 02:08 | 23°C / 69.5% |
| h2-hermonville | 04-08-2026 - 02:04 | 20.5°C / 82.5% |
| h1-hermonville | 04-08-2026 - 02:04 | 21.5°C / 78% |
| h3-hermonville | 04-08-2026 - 02:00 | 20.8°C / 82.5% |
| h4-hermonville | 04-08-2026 - 01:58 | 23.2°C / 70.5% |
| h2-hermonville | 04-08-2026 - 01:54 | 20.5°C / 83.5% |
| h1-hermonville | 04-08-2026 - 01:54 | 21.4°C / 79% |
| h3-hermonville | 04-08-2026 - 01:50 | 21°C / 80% |
| h4-hermonville | 04-08-2026 - 01:48 | 23.1°C / 72% |
| h2-hermonville | 04-08-2026 - 01:44 | 20.9°C / 83.5% |
| h1-hermonville | 04-08-2026 - 01:44 | 21.7°C / 79.5% |
| h3-hermonville | 04-08-2026 - 01:40 | 21.1°C / 81.5% |
| h4-hermonville | 04-08-2026 - 01:38 | 22.9°C / 72.5% |
| h2-hermonville | 04-08-2026 - 01:34 | 20.9°C / 83.5% |
| h1-hermonville | 04-08-2026 - 01:34 | 21.6°C / 79.5% |
| h3-hermonville | 04-08-2026 - 01:30 | 21.8°C / 78.5% |
| h4-hermonville | 04-08-2026 - 01:28 | 23.2°C / 71.5% |
| h1-hermonville | 04-08-2026 - 01:24 | 21.4°C / 79.5% |
| h2-hermonville | 04-08-2026 - 01:24 | 21.1°C / 83% |
| h3-hermonville | 04-08-2026 - 01:20 | 21.8°C / 80% |
| h4-hermonville | 04-08-2026 - 01:18 | 23.5°C / 71.5% |
| h2-hermonville | 04-08-2026 - 01:14 | 21°C / 83.5% |
| h1-hermonville | 04-08-2026 - 01:14 | 22°C / 78% |
| h3-hermonville | 04-08-2026 - 01:10 | 21.5°C / 79.5% |
| h4-hermonville | 04-08-2026 - 01:08 | 23.5°C / 71% |
| h2-hermonville | 04-08-2026 - 01:04 | 21.1°C / 84% |
| h3-hermonville | 04-08-2026 - 01:00 | 21.5°C / 81.5% |
| h4-hermonville | 04-08-2026 - 00:58 | 23.5°C / 72% |
| h2-hermonville | 04-08-2026 - 00:54 | 21.3°C / 83.5% |
| h1-hermonville | 04-08-2026 - 00:54 | 21.9°C / 80% |
| h3-hermonville | 04-08-2026 - 00:50 | 21.9°C / 81.5% |
| h4-hermonville | 04-08-2026 - 00:48 | 23.5°C / 73.5% |
| h2-hermonville | 04-08-2026 - 00:44 | 21.3°C / 86% |
| h1-hermonville | 04-08-2026 - 00:44 | 22.2°C / 80% |
| h3-hermonville | 04-08-2026 - 00:40 | 21.2°C / 85% |
| h4-hermonville | 04-08-2026 - 00:38 | 23.2°C / 75% |
| h2-hermonville | 04-08-2026 - 00:34 | 21.5°C / 84.5% |
| h1-hermonville | 04-08-2026 - 00:34 | 22.1°C / 81% |
| h3-hermonville | 04-08-2026 - 00:30 | 21.6°C / 84% |
| h4-hermonville | 04-08-2026 - 00:28 | 23.2°C / 75.5% |
| h3-hermonville | 04-08-2026 - 00:20 | 21.6°C / 83% |
| h4-hermonville | 04-08-2026 - 00:18 | 23.5°C / 73.5% |
| h2-hermonville | 04-08-2026 - 00:14 | 22.2°C / 80.5% |
| h1-hermonville | 04-08-2026 - 00:14 | 22.7°C / 78.5% |
| h3-hermonville | 04-08-2026 - 00:10 | 22.3°C / 79% |
| h4-hermonville | 04-08-2026 - 00:08 | 23.9°C / 71% |
| h2-hermonville | 04-08-2026 - 00:04 | 22.3°C / 80% |
| h1-hermonville | 04-08-2026 - 00:04 | 22.7°C / 78% |
| h3-hermonville | 04-08-2026 - 00:00 | 22.6°C / 77.5% |